Location: Unspecified
(1.8487°N, 0.0000°E)
Time: 08:16:43
(UTC+00:00)

Vanguard 2 - All Passes

Search period start: 04 April 2026 00:00
Search period end: 14 April 2026 00:00
Orbit: 554 x 2896 km, 32.9° (Epoch: 29 March)

Date Brightness Start Highest point End Pass type
(mag) Time Alt. Az. Time Alt. Az. Time Alt. Az.
4 Apr - 00:15:31 10° WNW 00:32:42 61° SW 00:47:49 10° SE visible
4 Apr - 02:33:27 10° WSW 02:45:10 23° SSW 02:54:40 10° SSE visible
4 Apr - 11:28:20 10° SW 11:32:20 83° SSE 11:36:36 10° ENE daylight
4 Apr - 13:38:58 10° NW 13:40:48 12° NNW 13:42:51 10° N daylight
4 Apr - 18:03:58 10° N 18:05:53 10° NNE 18:07:54 10° NNE daylight
4 Apr - 20:07:49 10° NNW 20:19:15 32° NNE 20:33:39 10° E visible
4 Apr - 22:16:00 10° NW 22:31:56 76° NE 22:49:19 10° ESE visible
5 Apr - 00:28:03 10° WNW 00:44:39 50° SW 00:59:21 10° SE night (unlit)
5 Apr - 02:48:02 10° WSW 02:57:35 18° SSW 03:05:37 10° S visible
5 Apr - 09:33:48 10° S 09:36:18 14° SSE 09:38:33 10° ESE daylight
5 Apr - 11:40:20 10° WSW 11:44:13 51° NW 11:48:22 10° NE daylight
5 Apr - 18:14:06 10° N 18:18:39 13° NNE 18:23:56 10° NE visible
5 Apr - 20:19:15 10° NNW 20:31:24 39° NE 20:46:58 10° E visible
5 Apr - 22:27:49 10° NW 22:43:52 89° NE 23:01:20 10° SE visible
6 Apr - 00:40:53 10° W 00:56:43 41° SW 01:10:46 10° SSE visible
6 Apr - 03:03:19 10° SW 03:10:14 14° SSW 03:16:17 10° S visible
6 Apr - 09:44:31 10° SSW 09:48:23 23° SSE 09:51:40 10° E daylight
6 Apr - 11:52:41 10° W 11:56:08 28° NNW 11:59:49 10° NNE daylight
6 Apr - 18:24:57 10° N 18:31:15 16° NNE 18:38:59 10° ENE visible
6 Apr - 20:30:43 10° NW 20:43:25 48° NE 20:59:55 10° ESE visible
6 Apr - 22:39:49 10° WNW 22:55:48 77° SW 23:13:11 10° SE visible
7 Apr - 00:54:04 10° W 01:08:53 33° SSW 01:22:06 10° SSE visible
7 Apr - 03:19:49 10° SW 03:23:06 11° SSW 03:26:11 10° S visible
7 Apr - 09:55:49 10° SW 10:00:24 41° SSE 10:04:09 10° ENE daylight
7 Apr - 12:05:33 10° WNW 12:08:07 16° NNW 12:10:49 10° N daylight
7 Apr - 18:36:00 10° NNW 18:43:38 20° NNE 18:53:30 10° ENE visible
7 Apr - 20:42:16 10° NW 20:55:21 58° NE 21:12:34 10° ESE visible
7 Apr - 22:51:58 10° WNW 23:07:47 65° SW 23:24:52 10° SE visible
8 Apr - 01:07:40 10° W 01:21:14 27° SSW 01:33:22 10° SSE visible
8 Apr - 08:01:02 10° S 08:03:21 12° SSE 08:05:24 10° SE daylight
8 Apr - 10:07:27 10° SW 10:12:18 76° SSE 10:16:14 10° ENE daylight
8 Apr - 18:47:09 10° NNW 18:55:49 26° NE 19:07:31 10° E visible
8 Apr - 20:53:53 10° NW 21:07:13 71° NE 21:24:54 10° ESE visible
8 Apr - 23:04:20 10° WNW 23:19:49 53° SW 23:36:26 10° SE visible
9 Apr - 01:21:45 10° WSW 01:33:46 22° SSW 01:44:35 10° SSE visible
9 Apr - 08:11:16 10° SSW 08:15:42 18° SSE 08:19:09 10° ESE daylight
9 Apr - 10:19:24 10° WSW 10:24:08 58° NW 10:28:01 10° NE daylight
9 Apr - 18:58:25 10° NNW 19:07:50 32° NE 19:21:05 10° E visible
9 Apr - 21:05:38 10° NW 21:19:05 85° NE 21:37:01 10° SE visible
9 Apr - 23:16:58 10° W 23:31:58 44° SSW 23:47:55 10° SE visible
10 Apr - 01:36:19 10° WSW 01:46:32 18° SSW 01:55:46 10° SSE visible
10 Apr - 08:22:15 10° SSW 08:27:55 28° SSE 08:31:59 10° E daylight
10 Apr - 10:31:42 10° W 10:35:55 32° NW 10:39:30 10° NNE daylight
10 Apr - 19:09:46 10° NNW 19:19:43 41° NE 19:34:14 10° ESE visible
10 Apr - 21:17:31 10° WNW 21:31:00 81° SW 21:48:55 10° SE visible
10 Apr - 23:29:55 10° W 23:44:15 36° SSW 23:59:18 10° SSE visible
11 Apr - 01:51:20 10° SW 01:59:31 15° SSW 02:06:58 10° S visible
11 Apr - 06:26:10 10° S 06:29:43 13° SSE 06:32:44 10° SE daylight
11 Apr - 08:33:37 10° SW 08:40:01 44° SSE 08:44:23 10° ENE daylight
11 Apr - 10:44:28 10° W 10:47:43 19° NW 10:50:36 10° N daylight
11 Apr - 17:17:00 10° N 17:21:13 14° NNE 17:26:18 10° ENE daylight
11 Apr - 19:21:12 10° NW 19:31:32 51° NE 19:47:01 10° ESE visible
11 Apr - 21:29:34 10° WNW 21:42:59 67° SW 22:00:39 10° SE visible
11 Apr - 23:43:13 10° W 23:56:42 30° SSW 00:10:39 10° SSE visible
12 Apr - 02:06:41 10° SW 02:12:42 12° SSW 02:18:15 10° S visible
12 Apr - 06:36:29 10° SSW 06:42:16 18° SSE 06:46:38 10° ESE daylight
12 Apr - 08:45:15 10° SW 08:51:59 73° SSE 08:56:27 10° ENE daylight
12 Apr - 10:58:22 10° NW 10:59:33 11° NW 11:00:41 10° NNW daylight
12 Apr - 17:27:32 10° N 17:33:19 18° NE 17:40:56 10° ENE daylight
12 Apr - 19:32:45 10° NW 19:43:17 64° NE 19:59:30 10° ESE visible
12 Apr - 21:41:49 10° WNW 21:55:05 55° SSW 22:12:16 10° SE visible
12 Apr - 23:56:56 10° WSW 00:09:21 24° SSW 00:21:59 10° SSE visible
13 Apr - 02:22:00 10° SSW 02:26:01 11° S 02:29:48 10° S visible
13 Apr - 04:39:38 10° S 04:42:12 11° S 04:44:33 10° SSE visible
13 Apr - 06:47:23 10° SSW 06:54:41 25° SSE 06:59:45 10° ESE daylight
13 Apr - 08:57:10 10° WSW 09:03:50 70° NW 09:08:15 10° NE daylight
13 Apr - 17:38:28 10° NNW 17:45:14 25° NE 17:54:49 10° E daylight
13 Apr - 19:44:25 10° NW 19:55:06 79° NE 20:11:42 10° ESE visible
13 Apr - 21:54:18 10° W 22:07:18 45° SSW 22:23:44 10° SE visible
